Simultaneous Nadir Overpasses (SNOs) Predictions

Prediction of SNOs between GOES-16 and AQUA Satellite Orbit:

Table of predicted SNOs for the next 14.0 days since TLE Epoch: 5/21/2022
Index Date Time (GOES-16) GOES-16 Lat,Lon AQUA Lat,Lon Distance(km) Time Diff (sec)
1 05/21/2022 18:33:45 0.01, -75.20 0.33, -73.62 179.83 80
2 05/22/2022 06:54:55 -0.01, -75.20 0.75, -78.75 404.20 80
3 05/24/2022 06:42:25 -0.01, -75.21 0.08, -75.72 57.29 80
4 05/26/2022 06:27:14 -0.01, -75.23 -0.55, -72.67 290.73 80
5 05/26/2022 18:48:33 0.00, -75.23 -0.55, -77.84 295.81 80
6 05/28/2022 18:38:42 0.01, -75.26 0.13, -74.80 53.21 80
7 05/30/2022 18:26:10 0.01, -75.29 0.77, -71.75 402.71 80
8 05/31/2022 06:47:20 -0.01, -75.29 0.34, -76.87 180.21 80
9 06/02/2022 06:32:08 -0.01, -75.32 -0.34, -73.83 170.02 80
10 06/02/2022 18:53:26 0.01, -75.33 -0.78, -78.99 416.31 80
